This is the latest recevied weather packets stored in our database for station/object K0VSC-1. If no packets are shown the sender has not sent any weather packets the latest 10 day(s).
| Time | Temp. | Humidity | Pressure | Rain* | Wind** | Luminosity | Snow |
|---|---|---|---|---|---|---|---|
| 1777833190 | 17.22° C | 28% | 1006.8 hPa | 0 mm | - | 861 W/m² | - |
| 1777832890 | 17.22° C | 28% | 1007 hPa | 0 mm | - | 860 W/m² | - |
| 1777832590 | 17.22° C | 29% | 1007 hPa | 0 mm | - | 856 W/m² | - |
| 1777832290 | 16.67° C | 28% | 1007.2 hPa | 0 mm | - | 854 W/m² | - |
| 1777831990 | 16.67° C | 30% | 1007.2 hPa | 0 mm | - | 854 W/m² | - |
| 1777831690 | 16.67° C | 28% | 1007.3 hPa | 0 mm | - | 854 W/m² | - |
| 1777831390 | 16.67° C | 29% | 1007.4 hPa | 0 mm | - | 854 W/m² | - |
| 1777831090 | 16.67° C | 27% | 1007.3 hPa | 0 mm | - | 854 W/m² | - |
| 1777830790 | 16.67° C | 28% | 1007.3 hPa | 0 mm | - | 851 W/m² | - |
| 1777830490 | 16.11° C | 28% | 1007.3 hPa | 0 mm | - | 849 W/m² | - |
| 1777830190 | 16.11° C | 29% | 1007.2 hPa | 0 mm | - | 847 W/m² | - |
| 1777829890 | 16.11° C | 27% | 1007.4 hPa | 0 mm | - | 844 W/m² | - |
| 1777829590 | 16.11° C | 27% | 1007.5 hPa | 0 mm | - | 842 W/m² | - |
| 1777829290 | 16.11° C | 28% | 1007.5 hPa | 0 mm | - | 838 W/m² | - |
| 1777828990 | 16.11° C | 27% | 1007.5 hPa | 0 mm | - | 835 W/m² | - |
| 1777828690 | 16.11° C | 28% | 1007.5 hPa | 0 mm | - | 830 W/m² | - |
| 1777828390 | 16.11° C | 27% | 1007.8 hPa | 0 mm | - | 824 W/m² | - |
| 1777828090 | 15.56° C | 28% | 1007.8 hPa | 0 mm | - | 819 W/m² | - |
| 1777827790 | 16.11° C | 29% | 1007.8 hPa | 0 mm | - | 817 W/m² | - |
| 1777827490 | 15.56° C | 28% | 1007.7 hPa | 0 mm | - | 810 W/m² | - |
| 1777827190 | 15.56° C | 29% | 1007.8 hPa | 0 mm | - | 805 W/m² | - |
| 1777826890 | 15.56° C | 33% | 1007.8 hPa | 0 mm | - | 796 W/m² | - |
| 1777826590 | 15.56° C | 31% | 1007.7 hPa | 0 mm | - | 791 W/m² | - |
| 1777826290 | 15.56° C | 30% | 1007.6 hPa | 0 mm | - | 784 W/m² | - |
| 1777825990 | 15.56° C | 31% | 1007.7 hPa | 0 mm | - | 775 W/m² | - |
* Rain latest hour (hover to see other rain measurements)
** Current wind speed in m/s (hover to see current wind gust speed)